| time (UTC) | temp C | wind direction | speed KPH | gust KPH | rain 1hr cm | rain 24hr cm | rain mn cm | humidity % | barometer mb |
| 20260506171038 | 15 | 128 | 0.0 | 0.0 | 0.00 | 0.69 | 0.56 | 79 | 1005.4 |
| 20260506170538 | 16 | 132 | 0.0 | 0.0 | 0.00 | 0.69 | 0.56 | 78 | 1005.5 |
| 20260506170044 | 16 | 134 | 0.0 | 0.0 | 0.00 | 0.69 | 0.56 | 76 | 1005.4 |
| 20260506165537 | 16 | 142 | 0.0 | 0.0 | 0.00 | 0.69 | 0.56 | 77 | 1005.5 |
| 20260506165037 | 16 | 147 | 0.0 | 0.0 | 0.00 | 0.69 | 0.56 | 77 | 1005.6 |
| 20260506164551 | 16 | 148 | 0.0 | 0.0 | 0.00 | 0.69 | 0.56 | 74 | 1005.7 |
| 20260506164036 | 16 | 148 | 0.0 | 0.0 | 0.00 | 0.69 | 0.56 | 72 | 1005.6 |
| 20260506163537 | 17 | 148 | 0.0 | 0.0 | 0.00 | 0.69 | 0.56 | 72 | 1005.4 |
| 20260506163041 | 17 | 148 | 0.0 | 0.0 | 0.00 | 0.69 | 0.56 | 71 | 1005.6 |
| 20260506162539 | 17 | 162 | 0.0 | 8.0 | 0.00 | 0.69 | 0.56 | 73 | 1005.4 |
| 20260506162039 | 17 | 148 | 0.0 | 8.0 | 0.00 | 0.69 | 0.56 | 66 | 1005.4 |
| 20260506161536 | 17 | 148 | 1.6 | 8.0 | 0.00 | 0.69 | 0.56 | 65 | 1005.4 |
| 20260506161035 | 17 | 262 | 0.0 | 8.0 | 0.00 | 0.69 | 0.56 | 66 | 1005.5 |
| 20260506160535 | 17 | 294 | 0.0 | 8.0 | 0.00 | 0.69 | 0.56 | 67 | 1005.6 |
| 20260506160037 | 17 | 281 | 1.6 | 9.7 | 0.00 | 0.69 | 0.56 | 64 | 1005.8 |
| 20260506155535 | 17 | 261 | 1.6 | 9.7 | 0.00 | 0.69 | 0.56 | 64 | 1005.8 |
| 20260506155035 | 17 | 204 | 3.2 | 11.3 | 0.00 | 0.69 | 0.56 | 64 | 1005.7 |
| 20260506154536 | 17 | 205 | 0.0 | 6.4 | 0.00 | 0.69 | 0.56 | 68 | 1005.7 |
| 20260506154037 | 17 | 188 | 0.0 | 6.4 | 0.00 | 0.69 | 0.56 | 67 | 1005.7 |
| 20260506153537 | 17 | 182 | 3.2 | 12.9 | 0.00 | 0.69 | 0.56 | 64 | 1005.7 |
| 20260506153035 | 17 | 194 | 3.2 | 12.9 | 0.00 | 0.69 | 0.56 | 63 | 1005.8 |
| 20260506152534 | 17 | 177 | 3.2 | 12.9 | 0.00 | 0.69 | 0.56 | 63 | 1005.9 |
| 20260506152036 | 18 | 209 | 4.8 | 12.9 | 0.00 | 0.69 | 0.56 | 62 | 1005.8 |
| 20260506151537 | 18 | 142 | 4.8 | 12.9 | 0.00 | 0.69 | 0.56 | 60 | 1005.9 |
| 20260506151033 | 18 | 186 | 6.4 | 14.5 | 0.00 | 0.69 | 0.56 | 60 | 1005.9 |
| 20260506150533 | 18 | 183 | 4.8 | 14.5 | 0.00 | 0.69 | 0.56 | 61 | 1005.7 |
| 20260506150033 | 18 | 128 | 3.2 | 14.5 | 0.00 | 0.69 | 0.56 | 62 | 1005.7 |
| 20260506145533 | 18 | 140 | 4.8 | 14.5 | 0.00 | 0.69 | 0.56 | 62 | 1005.8 |
| 20260506145031 | 18 | 215 | 4.8 | 14.5 | 0.00 | 0.69 | 0.56 | 64 | 1005.8 |
| 20260506144532 | 18 | 184 | 8.0 | 14.5 | 0.00 | 0.69 | 0.56 | 62 | 1005.8 |
| 20260506144031 | 18 | 160 | 6.4 | 12.9 | 0.00 | 0.69 | 0.56 | 66 | 1005.9 |
| 20260506143531 | 17 | 190 | 1.6 | 11.3 | 0.00 | 0.69 | 0.56 | 67 | 1005.9 |
| 20260506143037 | 17 | 165 | 3.2 | 11.3 | 0.00 | 0.69 | 0.56 | 67 | 1006.0 |
| 20260506142630 | 17 | 165 | 4.8 | 11.3 | 0.00 | 0.69 | 0.56 | 67 | 1006.1 |
| 20260506142030 | 18 | 155 | 3.2 | 12.9 | 0.00 | 0.69 | 0.56 | 65 | 1006.0 |
| 20260506141540 | 18 | 210 | 3.2 | 16.1 | 0.00 | 0.69 | 0.56 | 69 | 1006.0 |
| 20260506141029 | 18 | 144 | 6.4 | 16.1 | 0.00 | 0.69 | 0.56 | 66 | 1006.0 |
| 20260506140532 | 18 | 192 | 4.8 | 14.5 | 0.00 | 0.69 | 0.56 | 66 | 1006.1 |
| 20260506140029 | 17 | 156 | 6.4 | 14.5 | 0.00 | 0.69 | 0.56 | 64 | 1006.1 |
| 20260506135528 | 18 | 227 | 3.2 | 11.3 | 0.00 | 0.69 | 0.56 | 71 | 1006.2 |
| 20260506135031 | 18 | 177 | 3.2 | 17.7 | 0.00 | 0.69 | 0.56 | 66 | 1006.1 |
| 20260506134528 | 18 | 145 | 6.4 | 17.7 | 0.00 | 0.69 | 0.56 | 64 | 1006.1 |
| 20260506134029 | 18 | 191 | 3.2 | 16.1 | 0.00 | 0.69 | 0.56 | 64 | 1006.2 |
| 20260506133527 | 18 | 248 | 6.4 | 16.1 | 0.00 | 0.69 | 0.56 | 65 | 1006.1 |
| 20260506133027 | 18 | 252 | 6.4 | 16.1 | 0.00 | 0.69 | 0.56 | 66 | 1006.3 |
| 20260506132530 | 18 | 164 | 4.8 | 14.5 | 0.00 | 0.69 | 0.56 | 67 | 1006.3 |
| 20260506132026 | 18 | 252 | 6.4 | 19.3 | 0.00 | 0.69 | 0.56 | 67 | 1006.3 |
| 20260506131526 | 18 | 279 | 9.7 | 20.9 | 0.00 | 0.69 | 0.56 | 65 | 1006.3 |
| 20260506131024 | 18 | 240 | 3.2 | 14.5 | 0.00 | 0.69 | 0.56 | 71 | 1006.3 |
| 20260506130528 | 18 | 292 | 6.4 | 14.5 | 0.00 | 0.69 | 0.56 | 68 | 1006.4 |
| 20260506130023 | 17 | 173 | 6.4 | 14.5 | 0.00 | 0.69 | 0.56 | 72 | 1006.4 |
| 20260506125523 | 17 | 151 | 4.8 | 14.5 | 0.00 | 0.69 | 0.56 | 69 | 1006.3 |
| 20260506125023 | 18 | 242 | 4.8 | 14.5 | 0.00 | 0.69 | 0.56 | 70 | 1006.4 |
| 20260506124522 | 18 | 175 | 4.8 | 14.5 | 0.00 | 0.69 | 0.56 | 71 | 1006.4 |
| 20260506124021 | 17 | 194 | 4.8 | 16.1 | 0.00 | 0.69 | 0.56 | 70 | 1006.4 |
| 20260506123521 | 17 | 219 | 4.8 | 16.1 | 0.00 | 0.69 | 0.56 | 73 | 1006.5 |
| 20260506123021 | 17 | 186 | 4.8 | 16.1 | 0.00 | 0.69 | 0.56 | 72 | 1006.4 |
| 20260506122520 | 17 | 178 | 6.4 | 11.3 | 0.00 | 0.69 | 0.56 | 70 | 1006.5 |
| 20260506122019 | 17 | 201 | 3.2 | 14.5 | 0.00 | 0.69 | 0.56 | 74 | 1006.6 |
| 20260506121519 | 17 | 178 | 8.0 | 16.1 | 0.00 | 0.69 | 0.56 | 72 | 1006.5 |
| 20260506121019 | 17 | 220 | 6.4 | 11.3 | 0.00 | 0.69 | 0.56 | 73 | 1006.5 |
| 20260506120519 | 17 | 203 | 4.8 | 14.5 | 0.00 | 0.69 | 0.56 | 73 | 1006.5 |
| 20260506120034 | 17 | 184 | 4.8 | 17.7 | 0.00 | 0.69 | 0.56 | 70 | 1006.5 |
| 20260506115521 | 17 | 267 | 4.8 | 17.7 | 0.00 | 0.69 | 0.56 | 73 | 1006.5 |
| 20260506115017 | 17 | 207 | 4.8 | 14.5 | 0.00 | 0.69 | 0.56 | 77 | 1006.5 |
| 20260506114519 | 17 | 213 | 4.8 | 12.9 | 0.00 | 0.69 | 0.56 | 74 | 1006.3 |
| 20260506114015 | 16 | 232 | 3.2 | 12.9 | 0.00 | 0.69 | 0.56 | 76 | 1006.4 |
| 20260506113514 | 16 | 196 | 4.8 | 17.7 | 0.00 | 0.69 | 0.56 | 74 | 1006.4 |
| 20260506113013 | 16 | 253 | 8.0 | 17.7 | 0.00 | 0.69 | 0.56 | 74 | 1006.3 |
| 20260506112512 | 16 | 185 | 6.4 | 19.3 | 0.00 | 0.69 | 0.56 | 73 | 1006.6 |
| 20260506112012 | 16 | 266 | 8.0 | 19.3 | 0.00 | 0.69 | 0.56 | 73 | 1006.3 |
| 20260506111510 | 16 | 184 | 6.4 | 12.9 | 0.00 | 0.69 | 0.56 | 75 | 1006.4 |
| 20260506111010 | 16 | 211 | 4.8 | 12.9 | 0.00 | 0.69 | 0.56 | 76 | 1006.3 |
| 20260506110610 | 16 | 249 | 4.8 | 12.9 | 0.00 | 0.69 | 0.56 | 77 | 1006.3 |
| 20260506110010 | 16 | 226 | 4.8 | 16.1 | 0.00 | 0.69 | 0.56 | 78 | 1006.5 |
| 20260506105509 | 15 | 239 | 8.0 | 19.3 | 0.00 | 0.69 | 0.56 | 78 | 1006.5 |
| 20260506105010 | 16 | 312 | 4.8 | 27.4 | 0.00 | 0.69 | 0.56 | 79 | 1006.4 |
| 20260506104513 | 16 | 255 | 3.2 | 22.5 | 0.00 | 0.69 | 0.56 | 78 | 1006.5 |
| 20260506104011 | 16 | 176 | 8.0 | 22.5 | 0.00 | 0.69 | 0.56 | 77 | 1006.4 |
| 20260506103506 | 16 | 182 | 1.6 | 11.3 | 0.00 | 0.69 | 0.56 | 82 | 1006.5 |
| 20260506103018 | 15 | 164 | 4.8 | 12.9 | 0.00 | 0.69 | 0.56 | 83 | 1006.4 |
| 20260506102507 | 15 | 207 | 4.8 | 11.3 | 0.00 | 0.69 | 0.56 | 82 | 1006.3 |
| 20260506102006 | 15 | 242 | 3.2 | 12.9 | 0.00 | 0.69 | 0.56 | 81 | 1006.3 |
| 20260506101505 | 15 | 210 | 4.8 | 12.9 | 0.00 | 0.69 | 0.56 | 81 | 1006.4 |
| 20260506101002 | 15 | 227 | 6.4 | 12.9 | 0.00 | 0.69 | 0.56 | 81 | 1006.4 |
| 20260506100502 | 15 | 155 | 4.8 | 14.5 | 0.00 | 0.69 | 0.56 | 83 | 1006.4 |
| 20260506100002 | 15 | 178 | 8.0 | 14.5 | 0.00 | 0.69 | 0.56 | 83 | 1006.3 |
| 20260506095601 | 15 | 181 | 6.4 | 17.7 | 0.00 | 0.69 | 0.56 | 85 | 1006.5 |
| 20260506095059 | 15 | 141 | 6.4 | 16.1 | 0.00 | 0.69 | 0.56 | 86 | 1006.4 |
| 20260506094603 | 14 | 247 | 3.2 | 11.3 | 0.00 | 0.69 | 0.56 | 90 | 1006.3 |
| 20260506094057 | 14 | 215 | 3.2 | 8.0 | 0.00 | 0.69 | 0.56 | 90 | 1006.4 |
| 20260506093555 | 13 | 192 | 4.8 | 9.7 | 0.00 | 0.69 | 0.56 | 90 | 1006.4 |
| 20260506093054 | 13 | 245 | 3.2 | 11.3 | 0.00 | 0.69 | 0.56 | 92 | 1006.5 |
| 20260506092553 | 13 | 193 | 1.6 | 11.3 | 0.00 | 0.69 | 0.56 | 91 | 1006.4 |
| 20260506092052 | 13 | 167 | 3.2 | 16.1 | 0.00 | 0.69 | 0.56 | 90 | 1006.3 |
| 20260506091552 | 13 | 254 | 4.8 | 16.1 | 0.00 | 0.69 | 0.56 | 91 | 1006.5 |
| 20260506091051 | 13 | 194 | 3.2 | 14.5 | 0.00 | 0.69 | 0.56 | 93 | 1006.4 |
| 20260506090549 | 12 | 268 | 4.8 | 14.5 | 0.00 | 0.69 | 0.56 | 93 | 1006.4 |
| 20260506090049 | 12 | 118 | 3.2 | 11.3 | 0.00 | 0.69 | 0.56 | 93 | 1006.3 |
| 20260506085548 | 12 | 221 | 1.6 | 9.7 | 0.00 | 0.69 | 0.56 | 93 | 1006.3 |
| 20260506085048 | 12 | 175 | 4.8 | 11.3 | 0.00 | 0.69 | 0.56 | 93 | 1006.5 |
| 20260506084615 | 12 | 211 | 3.2 | 12.9 | 0.00 | 0.69 | 0.56 | 93 | 1006.3 |
| 20260506084047 | 12 | 275 | 4.8 | 12.9 | 0.00 | 0.69 | 0.56 | 94 | 1006.3 |
| 20260506083545 | 12 | 193 | 6.4 | 12.9 | 0.00 | 0.69 | 0.56 | 94 | 1006.2 |
| 20260506083046 | 12 | 188 | 3.2 | 8.0 | 0.00 | 0.69 | 0.56 | 95 | 1006.2 |
| 20260506082544 | 12 | 193 | 0.0 | 9.7 | 0.00 | 0.69 | 0.56 | 96 | 1006.1 |
| 20260506082044 | 12 | 242 | 4.8 | 9.7 | 0.00 | 0.69 | 0.56 | 96 | 1006.0 |
| 20260506081552 | 12 | 176 | 1.6 | 11.3 | 0.00 | 0.69 | 0.56 | 96 | 1006.1 |
| 20260506081043 | 11 | 176 | 3.2 | 12.9 | 0.00 | 0.69 | 0.56 | 96 | 1006.1 |
| 20260506080543 | 11 | 117 | 4.8 | 12.9 | 0.00 | 0.69 | 0.56 | 96 | 1006.2 |
| 20260506073040 | 11 | 146 | 6.4 | 14.5 | 0.00 | 0.69 | 0.56 | 97 | 1006.0 |
| 20260506072539 | 11 | 183 | 4.8 | 14.5 | 0.00 | 0.69 | 0.56 | 97 | 1005.9 |
| 20260506072039 | 11 | 182 | 1.6 | 11.3 | 0.00 | 0.69 | 0.56 | 98 | 1005.9 |
| 20260506071539 | 11 | 266 | 4.8 | 11.3 | 0.00 | 0.69 | 0.56 | 98 | 1005.8 |
| 20260506071038 | 11 | 246 | 1.6 | 9.7 | 0.00 | 0.69 | 0.56 | 98 | 1005.9 |
| 20260506070538 | 11 | 207 | 3.2 | 8.0 | 0.00 | 0.69 | 0.56 | 99 | 1005.8 |
| 20260506062034 | 10 | 206 | 3.2 | 11.3 | 0.00 | 0.69 | 0.56 | 99 | 1006.0 |
| 20260506061534 | 10 | 196 | 1.6 | 8.0 | 0.00 | 0.69 | 0.56 | 99 | 1006.2 |
| 20260506061034 | 10 | 161 | 1.6 | 9.7 | 0.00 | 0.69 | 0.56 | 99 | 1006.1 |
| 20260506060533 | 10 | 183 | 3.2 | 9.7 | 0.00 | 0.69 | 0.56 | 99 | 1006.2 |
| 20260506051029 | 10 | 168 | 1.6 | 8.0 | 0.00 | 0.69 | 0.56 | 99 | 1005.9 |
| 20260506050529 | 10 | 198 | 3.2 | 11.3 | 0.00 | 0.69 | 0.56 | 99 | 1005.9 |
| 20260506045027 | 9 | 160 | 3.2 | 12.9 | 0.00 | 0.69 | 0.56 | 99 | 1005.6 |
| 20260506044534 | 9 | 185 | 4.8 | 12.9 | 0.00 | 0.69 | 0.56 | 99 | 1005.6 |
| 20260506044028 | 9 | 196 | 1.6 | 6.4 | 0.00 | 0.69 | 0.56 | 99 | 1005.5 |
| 20260506043531 | 9 | 207 | 0.0 | 4.8 | 0.00 | 0.69 | 0.56 | 99 | 1005.4 |
| 20260506043026 | 9 | 245 | 0.0 | 6.4 | 0.00 | 0.69 | 0.56 | 99 | 1005.4 |
| 20260506042525 | 9 | 245 | 1.6 | 6.4 | 0.00 | 0.69 | 0.56 | 99 | 1005.2 |
| 20260506042024 | 9 | 236 | 3.2 | 6.4 | 0.00 | 0.69 | 0.56 | 99 | 1005.2 |
| 20260506041524 | 9 | 243 | 1.6 | 6.4 | 0.00 | 0.69 | 0.56 | 99 | 1005.2 |
| 20260506041024 | 9 | 241 | 3.2 | 6.4 | 0.00 | 0.69 | 0.56 | 99 | 1005.3 |
| 20260506040526 | 9 | 210 | 0.0 | 3.2 | 0.00 | 0.69 | 0.56 | 99 | 1005.3 |
| 20260506040029 | 9 | 210 | 0.0 | 4.8 | 0.00 | 0.69 | 0.56 | 99 | 1005.3 |
| 20260506035523 | 9 | 209 | 0.0 | 9.7 | 0.00 | 0.69 | 0.56 | 99 | 1005.1 |
| 20260506035022 | 9 | 244 | 1.6 | 9.7 | 0.00 | 0.69 | 0.56 | 99 | 1005.2 |
| 20260506034522 | 9 | 230 | 1.6 | 8.0 | 0.00 | 0.69 | 0.56 | 99 | 1005.3 |
| 20260506034021 | 9 | 252 | 3.2 | 8.0 | 0.00 | 0.69 | 0.56 | 99 | 1005.3 |
| 20260506033521 | 9 | 246 | 1.6 | 8.0 | 0.00 | 0.69 | 0.56 | 99 | 1005.2 |
| 20260506033021 | 9 | 236 | 0.0 | 8.0 | 0.00 | 0.69 | 0.56 | 99 | 1005.2 |
| 20260506032521 | 9 | 239 | 1.6 | 8.0 | 0.00 | 0.69 | 0.56 | 99 | 1005.2 |
| 20260506032020 | 9 | 234 | 1.6 | 6.4 | 0.00 | 0.69 | 0.56 | 99 | 1005.4 |
| 20260506031520 | 9 | 200 | 1.6 | 11.3 | 0.00 | 0.69 | 0.56 | 98 | 1005.3 |
| 20260506031020 | 9 | 237 | 4.8 | 11.3 | 0.00 | 0.69 | 0.56 | 99 | 1005.5 |
| 20260506030520 | 9 | 223 | 0.0 | 8.0 | 0.00 | 0.69 | 0.56 | 99 | 1005.3 |
| 20260506030021 | 9 | 202 | 1.6 | 4.8 | 0.00 | 0.69 | 0.56 | 98 | 1005.3 |
| 20260506025518 | 9 | 201 | 0.0 | 6.4 | 0.00 | 0.69 | 0.56 | 98 | 1005.4 |
| 20260506025018 | 10 | 202 | 1.6 | 6.4 | 0.00 | 0.69 | 0.56 | 98 | 1005.4 |
| 20260506024518 | 10 | 223 | 0.0 | 6.4 | 0.00 | 0.69 | 0.56 | 98 | 1005.4 |
| 20260506024017 | 10 | 223 | 1.6 | 9.7 | 0.00 | 0.69 | 0.56 | 98 | 1005.4 |
| 20260506023517 | 10 | 172 | 1.6 | 9.7 | 0.00 | 0.69 | 0.56 | 98 | 1005.4 |
| 20260506023029 | 10 | 169 | 4.8 | 9.7 | 0.00 | 0.69 | 0.56 | 98 | 1005.4 |
| 20260506022515 | 10 | 236 | 1.6 | 8.0 | 0.00 | 0.69 | 0.56 | 98 | 1005.4 |
| 20260506022021 | 10 | 191 | 1.6 | 8.0 | 0.00 | 0.69 | 0.56 | 98 | 1005.5 |
| 20260506021521 | 10 | 229 | 0.0 | 4.8 | 0.00 | 0.69 | 0.56 | 98 | 1005.6 |
| 20260506021018 | 10 | 232 | 1.6 | 4.8 | 0.00 | 0.69 | 0.56 | 98 | 1005.3 |
| 20260506020512 | 10 | 232 | 0.0 | 4.8 | 0.00 | 0.69 | 0.56 | 98 | 1005.5 |
| 20260506020014 | 10 | 190 | 0.0 | 4.8 | 0.00 | 0.69 | 0.56 | 98 | 1005.6 |
| 20260506015513 | 10 | 188 | 0.0 | 3.2 | 0.00 | 0.69 | 0.56 | 98 | 1005.5 |
| 20260506015013 | 10 | 188 | 0.0 | 4.8 | 0.00 | 0.69 | 0.56 | 98 | 1005.5 |
| 20260506014513 | 10 | 188 | 0.0 | 4.8 | 0.00 | 0.69 | 0.56 | 98 | 1005.5 |
| 20260506014013 | 10 | 184 | 0.0 | 0.0 | 0.00 | 0.69 | 0.56 | 98 | 1005.4 |
| 20260506013511 | 10 | 184 | 0.0 | 0.0 | 0.00 | 0.69 | 0.56 | 98 | 1005.5 |
| 20260506013014 | 10 | 184 | 0.0 | 0.0 | 0.00 | 0.69 | 0.56 | 98 | 1005.5 |
| 20260506012511 | 10 | 184 | 0.0 | 0.0 | 0.00 | 0.69 | 0.56 | 98 | 1005.6 |
| 20260506012012 | 10 | 184 | 0.0 | 0.0 | 0.03 | 0.69 | 0.56 | 98 | 1005.7 |
| 20260506011511 | 10 | 184 | 0.0 | 0.0 | 0.03 | 0.69 | 0.56 | 98 | 1005.6 |
| 20260506011010 | 10 | 184 | 0.0 | 0.0 | 0.03 | 0.69 | 0.56 | 98 | 1005.6 |
| 20260506010510 | 10 | 184 | 0.0 | 0.0 | 0.03 | 0.69 | 0.56 | 98 | 1005.6 |
| 20260506010013 | 10 | 184 | 0.0 | 1.6 | 0.03 | 0.69 | 0.56 | 98 | 1005.7 |
| 20260506005510 | 10 | 184 | 0.0 | 1.6 | 0.03 | 0.69 | 0.56 | 97 | 1005.8 |
| 20260506005011 | 10 | 139 | 0.0 | 0.0 | 0.03 | 0.69 | 0.56 | 97 | 1005.8 |
| 20260506004512 | 10 | 139 | 0.0 | 0.0 | 0.03 | 0.69 | 0.56 | 97 | 1005.8 |
| 20260506004013 | 10 | 111 | 0.0 | 0.0 | 0.05 | 0.69 | 0.56 | 97 | 1005.8 |
| 20260506003512 | 10 | 107 | 0.0 | 0.0 | 0.05 | 0.69 | 0.56 | 97 | 1005.7 |
| 20260506003013 | 10 | 84 | 0.0 | 0.0 | 0.05 | 0.69 | 0.56 | 97 | 1005.5 |
| 20260506002507 | 10 | 84 | 0.0 | 0.0 | 0.05 | 0.69 | 0.56 | 97 | 1005.3 |
| 20260506002007 | 10 | 84 | 0.0 | 0.0 | 0.05 | 0.66 | 0.53 | 97 | 1005.3 |
| 20260506001508 | 10 | 84 | 0.0 | 4.8 | 0.05 | 0.66 | 0.53 | 97 | 1005.1 |
| 20260506001007 | 10 | 84 | 1.6 | 4.8 | 0.08 | 0.66 | 0.53 | 97 | 1005.2 |
| 20260506000507 | 10 | 84 | 1.6 | 3.2 | 0.13 | 0.66 | 0.53 | 97 | 1005.0 |
| 20260506000006 | 10 | 84 | 0.0 | 4.8 | 0.15 | 0.66 | 0.53 | 97 | 1004.9 |
| 20260505235508 | 10 | 84 | 1.6 | 4.8 | 0.15 | 0.66 | 0.53 | 96 | 1005.1 |
| 20260505235006 | 10 | 80 | 1.6 | 4.8 | 0.18 | 0.66 | 0.53 | 96 | 1005.1 |
| 20260505234505 | 10 | 88 | 0.0 | 4.8 | 0.20 | 0.66 | 0.53 | 96 | 1005.2 |
| 20260505234004 | 10 | 92 | 1.6 | 6.4 | 0.23 | 0.64 | 0.51 | 96 | 1005.3 |
| 20260505233506 | 10 | 111 | 1.6 | 6.4 | 0.23 | 0.64 | 0.51 | 96 | 1005.4 |
| 20260505233003 | 10 | 101 | 0.0 | 4.8 | 0.25 | 0.61 | 0.51 | 96 | 1005.6 |
| 20260505232503 | 10 | 101 | 0.0 | 17.7 | 0.30 | 0.61 | 0.51 | 96 | 1005.7 |
| 20260505232001 | 10 | 72 | 0.0 | 17.7 | 0.33 | 0.61 | 0.48 | 96 | 1005.8 |
| 20260505231501 | 10 | 301 | 0.0 | 8.0 | 0.41 | 0.61 | 0.48 | 96 | 1005.8 |
| 20260505231101 | 10 | 5 | 1.6 | 11.3 | 0.43 | 0.58 | 0.46 | 96 | 1006.0 |
| 20260505230659 | 10 | 223 | 1.6 | 11.3 | 0.43 | 0.56 | 0.43 | 96 | 1006.2 |
| 20260505230058 | 10 | 251 | 1.6 | 11.3 | 0.41 | 0.51 | 0.41 | 96 | 1006.5 |
| 20260505225603 | 10 | 274 | 1.6 | 6.4 | 0.38 | 0.51 | 0.38 | 96 | 1006.8 |
| 20260505225056 | 10 | 80 | 1.6 | 6.4 | 0.38 | 0.48 | 0.36 | 96 | 1006.8 |
| 20260505224559 | 11 | 70 | 0.0 | 9.7 | 0.41 | 0.46 | 0.33 | 96 | 1007.0 |
| 20260505224055 | 11 | 70 | 1.6 | 16.1 | 0.41 | 0.43 | 0.30 | 96 | 1007.1 |
| 20260505223554 | 11 | 237 | 0.0 | 16.1 | 0.41 | 0.41 | 0.28 | 96 | 1007.4 |
| 20260505223057 | 11 | 246 | 3.2 | 11.3 | 0.36 | 0.36 | 0.23 | 96 | 1007.5 |
| 20260505222557 | 11 | 252 | 4.8 | 11.3 | 0.33 | 0.33 | 0.20 | 95 | 1007.6 |
| 20260505222052 | 11 | 238 | 1.6 | 14.5 | 0.25 | 0.25 | 0.15 | 95 | 1007.7 |
| 20260505221551 | 11 | 291 | 3.2 | 14.5 | 0.20 | 0.20 | 0.08 | 95 | 1007.6 |
| 20260505221052 | 11 | 256 | 3.2 | 12.9 | 0.15 | 0.15 | 0.03 | 95 | 1007.4 |
| 20260505220548 | 11 | 207 | 1.6 | 14.5 | 0.13 | 0.13 | 0.00 | 95 | 1007.0 |
| 20260505220051 | 11 | 266 | 3.2 | 16.1 | 0.13 | 0.13 | 0.00 | 94 | 1006.9 |
| 20260505215647 | 11 | 294 | 8.0 | 16.1 | 0.13 | 0.13 | 0.13 | 93 | 1006.9 |
| 20260505215045 | 12 | 225 | 3.2 | 19.3 | 0.08 | 0.08 | 0.08 | 93 | 1007.0 |
| 20260505214554 | 12 | 240 | 6.4 | 19.3 | 0.05 | 0.05 | 0.05 | 92 | 1006.8 |
| 20260505214044 | 13 | 199 | 6.4 | 20.9 | 0.03 | 0.03 | 0.03 | 92 | 1006.8 |
| 20260505213543 | 13 | 232 | 3.2 | 20.9 | 0.00 | 0.00 | 0.00 | 90 | 1006.8 |
| 20260505213043 | 13 | 178 | 1.6 | 9.7 | 0.00 | 0.00 | 0.00 | 89 | 1006.3 |
| 20260505212541 | 13 | 23 | 1.6 | 16.1 | 0.00 | 0.00 | 0.00 | 89 | 1005.7 |
| 20260505212040 | 13 | 5 | 4.8 | 16.1 | 0.00 | 0.00 | 0.00 | 89 | 1005.4 |
| 20260505211540 | 13 | 77 | 3.2 | 12.9 | 0.00 | 0.00 | 0.00 | 88 | 1005.2 |
| 20260505211043 | 13 | 336 | 3.2 | 12.9 | 0.00 | 0.00 | 0.00 | 88 | 1005.0 |
| 20260505210539 | 13 | 63 | 3.2 | 9.7 | 0.00 | 0.00 | 0.00 | 88 | 1005.0 |
| 20260505210043 | 13 | 75 | 4.8 | 17.7 | 0.00 | 0.00 | 0.00 | 88 | 1005.0 |
| 20260505205540 | 13 | 73 | 3.2 | 16.1 | 0.00 | 0.00 | 0.00 | 88 | 1005.1 |
| 20260505205038 | 13 | 71 | 3.2 | 16.1 | 0.00 | 0.00 | 0.00 | 88 | 1004.9 |
| 20260505204538 | 13 | 49 | 4.8 | 17.7 | 0.00 | 0.00 | 0.00 | 87 | 1004.8 |
| 20260505204040 | 13 | 69 | 4.8 | 17.7 | 0.00 | 0.00 | 0.00 | 87 | 1004.9 |
| 20260505203540 | 13 | 76 | 4.8 | 17.7 | 0.00 | 0.00 | 0.00 | 88 | 1005.1 |
| 20260505203054 | 13 | 96 | 4.8 | 14.5 | 0.00 | 0.00 | 0.00 | 87 | 1005.1 |
| 20260505202538 | 13 | 54 | 4.8 | 16.1 | 0.00 | 0.00 | 0.00 | 87 | 1005.2 |
| 20260505202037 | 13 | 61 | 4.8 | 19.3 | 0.00 | 0.00 | 0.00 | 87 | 1005.0 |
| 20260505201543 | 13 | 55 | 4.8 | 17.7 | 0.00 | 0.00 | 0.00 | 88 | 1004.8 |
| 20260505201036 | 13 | 69 | 6.4 | 17.7 | 0.00 | 0.00 | 0.00 | 88 | 1004.9 |
| 20260505200536 | 13 | 26 | 6.4 | 16.1 | 0.00 | 0.00 | 0.00 | 88 | 1004.9 |
| 20260505200041 | 13 | 83 | 6.4 | 17.7 | 0.00 | 0.00 | 0.00 | 88 | 1005.1 |
| 20260505195535 | 13 | 82 | 6.4 | 25.7 | 0.00 | 0.00 | 0.00 | 88 | 1005.2 |
| 20260505195035 | 13 | 103 | 6.4 | 25.7 | 0.00 | 0.00 | 0.00 | 88 | 1005.3 |
| 20260505194537 | 13 | 80 | 6.4 | 14.5 | 0.00 | 0.00 | 0.00 | 88 | 1005.2 |
| 20260505194035 | 13 | 136 | 4.8 | 19.3 | 0.00 | 0.00 | 0.00 | 88 | 1005.5 |
| 20260505193536 | 13 | 99 | 4.8 | 19.3 | 0.00 | 0.00 | 0.00 | 88 | 1005.5 |
| 20260505193035 | 14 | 85 | 4.8 | 12.9 | 0.00 | 0.00 | 0.00 | 87 | 1005.5 |
| 20260505192534 | 14 | 86 | 4.8 | 16.1 | 0.00 | 0.00 | 0.00 | 87 | 1005.5 |
| 20260505192037 | 14 | 91 | 3.2 | 16.1 | 0.00 | 0.00 | 0.00 | 87 | 1005.4 |
| 20260505191534 | 14 | 109 | 4.8 | 12.9 | 0.00 | 0.00 | 0.00 | 87 | 1005.2 |
| 20260505191035 | 14 | 93 | 4.8 | 12.9 | 0.00 | 0.00 | 0.00 | 87 | 1005.2 |
| 20260505190533 | 14 | 78 | 4.8 | 12.9 | 0.00 | 0.00 | 0.00 | 86 | 1005.1 |
| 20260505190037 | 14 | 93 | 4.8 | 12.9 | 0.00 | 0.00 | 0.00 | 86 | 1005.2 |
| 20260505185532 | 14 | 78 | 4.8 | 16.1 | 0.00 | 0.00 | 0.00 | 86 | 1005.2 |
| 20260505185032 | 15 | 93 | 4.8 | 16.1 | 0.00 | 0.00 | 0.00 | 86 | 1005.2 |
| 20260505184536 | 15 | 186 | 4.8 | 14.5 | 0.00 | 0.00 | 0.00 | 86 | 1005.2 |
| 20260505184034 | 15 | 90 | 3.2 | 16.1 | 0.00 | 0.00 | 0.00 | 85 | 1005.2 |
| 20260505183530 | 15 | 89 | 4.8 | 16.1 | 0.00 | 0.00 | 0.00 | 85 | 1005.3 |
| 20260505183030 | 15 | 82 | 4.8 | 14.5 | 0.00 | 0.00 | 0.00 | 85 | 1005.4 |
| 20260505182529 | 15 | 39 | 4.8 | 14.5 | 0.00 | 0.00 | 0.00 | 85 | 1005.4 |
| 20260505182028 | 15 | 88 | 3.2 | 17.7 | 0.00 | 0.00 | 0.00 | 84 | 1005.4 |
| 20260505181535 | 15 | 91 | 3.2 | 17.7 | 0.00 | 0.00 | 0.00 | 84 | 1005.5 |
| 20260505181028 | 15 | 82 | 6.4 | 16.1 | 0.00 | 0.00 | 0.00 | 84 | 1005.5 |
| 20260505180527 | 15 | 68 | 3.2 | 19.3 | 0.00 | 0.00 | 0.00 | 84 | 1005.6 |
| 20260505180027 | 15 | 95 | 3.2 | 16.1 | 0.00 | 0.00 | 0.00 | 84 | 1005.6 |
| 20260505175528 | 15 | 67 | 3.2 | 11.3 | 0.00 | 0.00 | 0.00 | 83 | 1005.7 |
| 20260505175026 | 16 | 67 | 3.2 | 12.9 | 0.00 | 0.00 | 0.00 | 83 | 1005.8 |
| 20260505174535 | 16 | 101 | 3.2 | 12.9 | 0.00 | 0.00 | 0.00 | 83 | 1005.9 |
| 20260505174026 | 16 | 57 | 3.2 | 11.3 | 0.00 | 0.00 | 0.00 | 83 | 1005.9 |
| 20260505173525 | 16 | 85 | 3.2 | 12.9 | 0.00 | 0.00 | 0.00 | 83 | 1006.0 |
| 20260505173025 | 16 | 94 | 3.2 | 14.5 | 0.00 | 0.00 | 0.00 | 83 | 1006.0 |
| 20260505172525 | 16 | 97 | 1.6 | 12.9 | 0.00 | 0.00 | 0.00 | 83 | 1006.0 |
| 20260505172024 | 16 | 28 | 3.2 | 12.9 | 0.00 | 0.00 | 0.00 | 82 | 1006.0 |
| 20260505171524 | 16 | 93 | 4.8 | 12.9 | 0.00 | 0.00 | 0.00 | 82 | 1006.1 |